Lake Charles Regional, LA

8:51 PM CDT on June 27, 2017 (GMT -0500)
Lake Charles Regional

Weather History for KLCH - December, 2012

Change the Weather History Date:

Monday, December 24, 2012

  Actual Average Record
Temperature  
Mean Temperature 68 °F 52 °F  
Max Temperature 77 °F 62 °F 80 °F (2015)
Min Temperature 58 °F 43 °F 12 °F (1989)
Degree Days  
Heating Degree Days 0 13  
Month to date heating degree days 133 273  
Since 1 July heating degree days 339 480  
Cooling Degree Days 3 1  
Month to date cooling degree days 44 24  
Year to date cooling degree days 3228 2813  
Growing Degree Days 17 (Base 50)    
Moisture  
Dew Point 61 °F    
Average Humidity 75    
Maximum Humidity 100    
Minimum Humidity 50    
Precipitation  
Precipitation 0.00 in 0.16 in 1.88 in (1925)
Month to date precipitation 3.09 3.53  
Year to date precipitation 70.28 56.34  
Snow  
Snow 0.00 in 0.00 in 0.00 in ()
Month to date snowfall 0.0 0.0  
Since 1 July snowfall 0.0 0.0  
Snow Depth 0.00 in    
Sea Level Pressure  
Sea Level Pressure 29.89 in    
Wind  
Wind Speed 5 mph (SW)    
Max Wind Speed 12 mph    
Max Gust Speed 17 mph    
Visibility 5 miles    
Events Fog    
T = Trace of Precipitation, MM = Missing Value Source: NWS Daily Summary

Daily Weather History Graph

Daily Weather History Graph

Search for Another Location

Airport or City:

Trip Planner

Search our weather history database for the weather conditions in past years. The results will help you decide how hot, cold, wet, or windy it might be!

Date:

Astronomy

Dec. 24, 2012 Rise Set
Actual Time 7:06 AM CST 5:19 PM CST
Civil Twilight 6:40 AM CST 5:45 PM CST
Nautical Twilight 6:10 AM CST 6:15 PM CST
Astronomical Twilight 5:40 AM CST 6:44 PM CST
Moon 2:42 PM CST (12/24) 3:51 AM CST (12/24)
Length of Visible Light 11h 05m
Length of Day
10h 12m
Waxing Gibbous, 88% of the Moon is Illuminated
Dec 24
Waxing Gibbous
Dec 28
Full
Jan 4
Last Quarter
Jan 11
New
Jan 18
First Quarter

Hourly Weather History & Observations

Time (CST) Temp. Dew Point Humidity Pressure Visibility Wind Dir Wind Speed Gust Speed Precip Events Conditions
12:06 AM 66.2 °F 62.6 °F 88% 29.93 in 10.0 mi SSW 5.8 mph - N/A   Overcast
12:53 AM 66.0 °F 63.0 °F 90% 29.94 in 10.0 mi SSW 3.5 mph - N/A   Overcast
1:04 AM 66.2 °F 62.6 °F 88% 29.91 in 10.0 mi SSW 3.5 mph - N/A   Overcast
1:53 AM 66.9 °F 63.0 °F 87% 29.93 in 10.0 mi SW 6.9 mph - N/A   Overcast
2:53 AM 66.0 °F 63.0 °F 90% 29.93 in 10.0 mi SW 4.6 mph - N/A   Overcast
3:53 AM 66.9 °F 64.0 °F 90% 29.92 in 10.0 mi WSW 8.1 mph - N/A   Overcast
4:06 AM 66.2 °F 64.4 °F 94% 29.90 in 8.0 mi WSW 6.9 mph - N/A   Overcast
4:23 AM 66.2 °F 64.4 °F 94% 29.90 in 7.0 mi WSW 6.9 mph - N/A   Overcast
4:53 AM 66.0 °F 64.0 °F 93% 29.92 in 6.0 mi WSW 5.8 mph - N/A   Overcast
5:13 AM 66.2 °F 64.4 °F 94% 29.90 in 6.0 mi WSW 5.8 mph - N/A   Overcast
5:20 AM 66.2 °F 64.4 °F 94% 29.90 in 5.0 mi WSW 6.9 mph - N/A   Overcast
5:31 AM 66.2 °F 64.4 °F 94% 29.91 in 5.0 mi WSW 6.9 mph - N/A   Overcast
5:53 AM 66.0 °F 64.0 °F 93% 29.94 in 4.0 mi WSW 4.6 mph - N/A   Overcast
6:23 AM 66.2 °F 64.4 °F 94% 29.92 in 3.0 mi WSW 6.9 mph - N/A   Overcast
6:53 AM 64.9 °F 63.0 °F 93% 29.95 in 3.0 mi WSW 5.8 mph - N/A   Overcast
7:17 AM 64.4 °F 62.6 °F 94% 29.92 in 2.0 mi WSW 5.8 mph - N/A   Overcast
7:25 AM 64.4 °F 62.6 °F 94% 29.93 in 1.8 mi WSW 5.8 mph - N/A   Overcast
7:36 AM 64.4 °F 62.6 °F 94% 29.93 in 1.8 mi West 3.5 mph - N/A   Overcast
7:53 AM 64.0 °F 63.0 °F 96% 29.96 in 1.8 mi West 3.5 mph - N/A   Overcast
8:13 AM 64.4 °F 62.6 °F 94% 29.94 in 1.8 mi WSW 4.6 mph - N/A   Overcast
8:22 AM 64.4 °F 62.6 °F 94% 29.94 in 2.5 mi WSW 5.8 mph - N/A   Mostly Cloudy
8:27 AM 64.4 °F 62.6 °F 94% 29.94 in 3.0 mi WSW 4.6 mph - N/A   Scattered Clouds
8:53 AM 66.9 °F 64.0 °F 90% 29.97 in 6.0 mi West 4.6 mph - N/A   Clear
9:01 AM 66.2 °F 64.4 °F 94% 29.95 in 8.0 mi West 4.6 mph - N/A   Partly Cloudy
9:24 AM 68.0 °F 62.6 °F 83% 29.95 in 10.0 mi WNW 8.1 mph - N/A   Mostly Cloudy
9:53 AM 68.0 °F 62.1 °F 81% 29.98 in 10.0 mi WNW 6.9 mph 16.1 mph N/A   Scattered Clouds
10:53 AM 72.0 °F 61.0 °F 68% 29.97 in 10.0 mi West 6.9 mph - N/A   Clear
11:53 AM 73.9 °F 60.1 °F 62% 29.95 in 10.0 mi NNW 6.9 mph - N/A   Clear
12:53 PM 75.0 °F 59.0 °F 57% 29.91 in 10.0 mi West 5.8 mph - N/A   Clear
1:53 PM 75.9 °F 57.9 °F 54% 29.88 in 10.0 mi SW 4.6 mph - N/A   Clear
2:53 PM 77.0 °F 57.0 °F 50% 29.86 in 10.0 mi WSW 4.6 mph - N/A   Clear
3:53 PM 75.0 °F 59.0 °F 57% 29.86 in 10.0 mi SW 5.8 mph - N/A   Clear
4:53 PM 71.1 °F 63.0 °F 75% 29.86 in 10.0 mi South 3.5 mph - N/A   Clear
5:53 PM 66.9 °F 61.0 °F 81% 29.85 in 10.0 mi South 4.6 mph - N/A   Clear
6:53 PM 64.9 °F 61.0 °F 87% 29.86 in 8.0 mi South 3.5 mph - N/A   Clear
7:53 PM 62.1 °F 60.1 °F 93% 29.86 in 3.0 mi South 3.5 mph - N/A   Clear
8:07 PM 62.6 °F 60.8 °F 94% 29.84 in 2.5 mi Calm Calm - N/A   Clear
8:16 PM 60.8 °F 59.0 °F 94% 29.83 in 1.0 mi Calm Calm - N/A   Clear
8:24 PM 60.8 °F 59.0 °F 94% 29.83 in 0.8 mi Calm Calm - N/A   Mist
8:36 PM 59.0 °F 57.2 °F 94% 29.83 in 0.2 mi Calm Calm - N/A Fog Fog
8:53 PM 59.0 °F 57.0 °F 93% 29.86 in 0.2 mi Calm Calm - N/A Fog Fog
9:16 PM 57.2 °F 57.2 °F 100% 29.83 in 0.2 mi Calm Calm - N/A Fog Fog
9:33 PM 57.2 °F 57.2 °F 100% 29.83 in 0.2 mi Calm Calm - N/A Fog Fog
9:53 PM 57.9 °F 57.0 °F 97% 29.86 in 0.2 mi ESE 3.5 mph - N/A Fog Fog
10:23 PM 59.0 °F 57.2 °F 94% 29.83 in 0.8 mi Calm Calm - N/A   Mist
10:29 PM 59.0 °F 57.2 °F 94% 29.83 in 2.0 mi ESE 3.5 mph - N/A   Overcast
10:38 PM 57.2 °F 57.2 °F 100% 29.83 in 1.0 mi ESE 3.5 mph - N/A   Mist
10:48 PM 59.0 °F 57.2 °F 94% 29.82 in 2.5 mi Calm Calm - N/A   Mostly Cloudy
10:53 PM 59.0 °F 57.0 °F 93% 29.84 in 3.0 mi Calm Calm - N/A   Mostly Cloudy
10:58 PM 59.0 °F 57.2 °F 94% 29.82 in 1.5 mi Calm Calm - N/A   Mostly Cloudy
11:36 PM 59.0 °F 57.2 °F 94% 29.81 in 2.5 mi SE 3.5 mph - N/A   Overcast
11:45 PM 59.0 °F 57.2 °F 94% 29.81 in 1.2 mi Calm Calm - N/A   Overcast
11:53 PM 59.0 °F 57.0 °F 93% 29.83 in 0.8 mi Calm Calm - N/A   Overcast